Regional Weather Roundup
Issued by NWS Charleston, SC

Home | Current Version | Previous Version | Text Only | Print | Product List | Glossary On
Versions: 1 2 3 4 5 6 7 8 9 10 11 12 13 14 15 16 17 18 19 20 21 22 23 24 25 26 27 28 29 30 31 32 33 34 35 36 37 38 39 40 41 42 43 44 45 46 47 48 49 50
000
ASUS42 KCHS 250612
RWRCHS

REGIONAL WEATHER ROUNDUP
NATIONAL WEATHER SERVICE CHARLESTON SC
200 AM EDT SUN JUN 25 2017

NOTE: "FAIR" INDICATES FEW OR NO CLOUDS BELOW 12,000 FEET WITH NO
SIGNIFICANT WEATHER AND/OR OBSTRUCTIONS TO VISIBILITY.

NOT ALL STATIONS ARE QUALITY CONTROLLED. USE DATA WITH CAUTION...
ESPECIALLY DEWPOINT OBSERVATIONS.

SCZ027-030-031-034>040-042>050-250700-
...SOUTHEAST SOUTH CAROLINA...

CITY           SKY/WX    TMP DP  RH WIND       PRES   REMARKS
N CHARLESTON   MOCLDY    77  75  93 SW6       30.05S
6HR MIN TEMP:  77; 6HR MAX TEMP:  84; 6HR PCP:  0.16;

WATERFRONT PRK   N/A     81  79  94 SW7       30.03F HX  90
JOHNS ISLAND   TSTM      79  77  94 SW22      30.07R VSB 1/2
PINOPOLIS        N/A     79  73  83 VRB2      29.97F
MONCKS CORNER  FAIR      73  72  94 S3        30.04F
SUMMERVILLE    MOCLDY    77  72  83 CALM      30.05F
BEAUFORT MCAS  CLOUDY    78  77  96 SW3       30.04F FOG
6HR MIN TEMP:  77; 6HR MAX TEMP:  87;

BEAUFORT ARPT  TSTM      79  73  83 W13       30.06R
HILTON HEAD IS MOCLDY    82  77  83 SW3       30.06F HX  91
WALTERBORO     CLOUDY    77  72  83 SW6       30.04F
ALLENDALE      MOCLDY    75  75 100 CALM      30.04F

...SOUTHERN MIDLANDS AND PEE DEE...

CITY           SKY/WX    TMP DP  RH WIND       PRES   REMARKS
GEORGETOWN     MOCLDY    73  73 100 CALM      30.05F
KINGSTREE      MOCLDY    73  72  94 CALM      30.04S
ORANGEBURG     CLOUDY    74  73  97 S6        30.03F
6HR MIN TEMP:  74; 6HR MAX TEMP:  77;

BARNWELL       FAIR      75  75 100 S5        30.03F
AIKEN          FAIR      72  68  88 CALM      30.07S
MANNING        CLOUDY    73  73 100 S6        30.04F
COLUMBIA       CLOUDY    75  71  87 W7        30.03S
6HR MIN TEMP:  75; 6HR MAX TEMP:  78;

SUMTER         MOCLDY    75  73  94 S3        30.01S
6HR MIN TEMP:  74; 6HR MAX TEMP:  76;

FLORENCE       PTCLDY    74  74 100 S5        30.03F
6HR MIN TEMP:  74; 6HR MAX TEMP:  80;

MYRTLE BEACH   MOCLDY    77  74  90 W3        30.05
N MYRTLE BEACH MOCLDY    78  75  90 SW6       30.03F
6HR MIN TEMP:  77; 6HR MAX TEMP:  82; 6HR PCP:  0.61;


$$

GAZ063-065-086>088-099>101-113>116-118-119-134>141-150-250700-
...SOUTHEAST GEORGIA...

CITY           SKY/WX    TMP DP  RH WIND       PRES   REMARKS
SAVANNAH ARPT  CLEAR     80  73  79 CALM      30.05F
6HR MIN TEMP:  79; 6HR MAX TEMP:  90;

HUNTER AAF     CLEAR     80  76  89 CALM      30.03F
6HR MIN TEMP:  80; 6HR MAX TEMP:  87;

FORT STEWART   PTCLDY    79  74  87 CALM      30.03F
6HR MIN TEMP:  78; 6HR MAX TEMP:  90;

STATESBORO     LGT RAIN  76  76 100 CALM      30.07S
SYLVANIA       MOCLDY    76  76 100 CALM      30.08R
CLAXTON        CLOUDY    75  74  94 CALM      30.07S

...CSRA...CENTRAL AND FAR SOUTHEAST GEORGIA...

CITY           SKY/WX    TMP DP  RH WIND       PRES   REMARKS
THOMSON        PTCLDY    70  68  93 N3        30.10F
AUGUSTA-BUSH   MOCLDY    76  72  87 CALM      30.03R
6HR MIN TEMP:  76; 6HR MAX TEMP:  79;

AUGUSTA-DANIEL CLOUDY    75  67  76 N6        30.05R
SWAINSBORO     LGT RAIN  73  73 100 E3        30.08S
VIDALIA        CLOUDY    79  77  94 NE3       30.07F
EASTMAN        TSTM      77  77 100 CALM      30.09F
HAZLEHURST       N/A     80  79  95 CALM      30.05F
ALMA           CLEAR     79  74  84 SW5       30.06F
6HR MIN TEMP:  78; 6HR MAX TEMP:  89;

WAYCROSS       CLEAR     79  79 100 CALM      30.07S
JESUP          FAIR      75  70  83 CALM      30.06F
BAXLEY         FAIR      79  79 100 CALM      30.06F
BRUNSWICK      CLEAR     81  75  83 SW6       30.07F
SAINT SIMONS   CLEAR     81  74  79 SW8       30.06F
6HR MIN TEMP:  81; 6HR MAX TEMP:  84;


$$

SCZ027-028-034-036>038-045-046-048>050-GAZ119-141-250700-
...LAKE AND SUPPLEMENTAL COASTAL OBSERVATIONS...

STATION/POSITION TIME  TEMP    WIND        PRES    WAVE   SWELL
                       AIR SEA DIR/SP/G            HT/PER HT/PER/DIR
                 (UTC) (F)     (DEG/KT/KT) (MB)    (FT/S) (FT/S/D)
WINYAH BAY       NOT AVBL
LAKE MURRAY      0520   74     280/  6/  7 1016.3
ACE BASIN NERRS  0445   80      80/  1     1018.0
FORT PULASKI     0548          280/  4/  5 1017.8F
SAPELO ISLAND    0500   81     200/  5     1018.0

$$

ANZ835-935-AMZ111-154-330-350-352-354-370-450-454-472-250700-
...C-MAN AND BUOY OBSERVATIONS...

STATION/POSITION TIME  TEMP    WIND        PRES    WAVE   SWELL
                       AIR SEA DIR/SP/G            HT/PER HT/PER/DIR
                 (UTC) (F)     (DEG/KT/KT) (MB)    (FT/S) (FT/S/D)
BUOY 41004       0550   81 80  230/ 14/ 17 1017.5R   5/ 5   2/140/ 9
BUOY 41008       0550   82 82  190/ 17/ 21 1017.4F   3/ 5   2/110/ 8
FOLLY BEACH CMAN 0500   82     220/ 12/ 16 1018.3F
CAPERS NEARSHORE 0508   87 83  230/ 17/ 23 1017.2F
FRIPP NEARSHORE  0508   83 83  230/ 14/ 17 1017.6S


STATION/POSITION TIME  TEMP    WIND        PRES    WAVE   SWELL
                       AIR SEA DIR/SP/G            HT/PER HT/PER/DIR
                 (UTC) (F)     (DEG/KT/KT) (MB)    (FT/S) (FT/S/D)
5E ST. MARYS GA  0530      80                N/A     3/10
FRYING PAN BUOY  0550   80 80  250/ 14/ 17 1017.3F   5/ 6   3/140/ 7
BUOY 41025       0550   77 80  240/ 14/ 16 1016.1R   6/ 7   3/220/ 7
CAPE LOOKOUT NC  0600   75     220/  9/ 12 1015.7F
BUOY 41002       0450   81 80  200/ 14/ 17 1019.7    5/ 6   2/100/ 8
BUOY 41010       0550   82 83  150/ 14/ 16 1019.1F   4/ 8   2/110/ 8
ST AUGUSTINE FL  0600   79 78  220/  5/  7 1019.0F


$$



USA.gov is the U.S. government's official web portal to all federal, state and local government web resources and services.